Theta_e
308 308 308 308 308 307 308 308 309 309 310 310 310 310 310 310 310 310 310 311 311 311 310 311 311 311 311 311 311 311 311 312 312 312 311 311 310 310 309 309 309 308 308 307 307 306 306 307 306 305 306 305 303 302 302 301 301 301 302 302 303 303 304 305 306 306 307 308 309 310 312 314 316 319 321 322 322 321 321 321 321 321 322 321 321 320 319
308 308 308 308 307 307 308 308 308 309 309 310 310 310 310 310 310 310 310 311 311 310 309 311 312 312 311 311 312 312 312 312 311 311 311 310 310 309 308 308 307 307 307 306 306 305 304 303 303 304 303 304 304 303 302 301 300 301 300 300 301 301 302 303 302 303 304 305 306 306 307 307 308 310 312 314 316 318 319 320 321 320 320 320 319 319 318
307 307 307 307 307 307 307 307 308 308 308 309 309 310 310 310 310 310 311 311 310 310 309 310 312 312 310 310 311 311 311 311 311 311 311 310 308 307 307 306 306 306 306 306 306 305 303 302 302 302 301 301 302 302 301 301 300 300 300 300 300 300 301 301 301 302 302 302 303 304 304 305 306 306 306 307 307 309 312 315 317 319 319 319 319 317 316
307 306 306 307 306 306 306 307 307 307 308 308 309 309 309 310 310 309 310 309 309 309 309 310 311 311 310 310 310 310 311 311 311 311 310 309 307 307 306 306 306 306 305 306 305 304 304 304 304 303 301 301 302 301 300 300 300 300 299 300 300 300 300 300 300 302 303 303 303 304 303 303 304 304 305 305 305 305 305 306 311 316 319 319 319 318 316
306 306 306 306 305 305 305 306 307 307 307 307 307 308 308 309 309 308 308 309 308 309 309 309 309 309 310 309 309 310 311 311 310 310 309 307 306 306 306 305 305 305 305 306 305 304 303 304 304 303 302 301 301 301 300 300 300 300 300 300 300 300 299 300 301 301 301 303 304 305 305 303 303 302 303 303 303 304 305 303 306 312 317 319 319 318 317
305 305 305 304 304 304 305 306 307 307 307 307 307 307 307 308 309 308 308 308 308 308 308 308 308 309 310 310 310 310 311 310 310 308 307 306 306 306 306 306 306 306 306 306 305 305 305 304 303 301 302 302 302 301 301 301 301 301 301 303 303 302 300 300 301 301 302 303 304 304 304 303 302 301 302 303 302 302 303 304 304 306 311 316 318 317 317
304 304 304 303 303 304 305 306 306 306 306 306 306 307 308 308 308 308 307 307 307 308 308 308 308 309 309 308 309 309 309 310 309 307 306 306 305 305 306 306 306 306 306 306 306 306 305 304 303 303 304 304 303 302 302 301 301 301 301 302 303 302 301 301 301 301 302 304 305 304 303 302 301 301 301 302 302 302 304 307 309 309 311 314 316 317 317
304 303 303 303 304 305 305 305 306 306 306 306 306 306 307 307 307 307 307 307 308 309 308 308 308 308 307 306 307 307 307 309 308 307 306 306 305 305 305 305 305 306 305 305 305 305 305 304 304 304 305 304 304 303 302 301 301 301 301 301 301 300 300 301 301 301 302 303 305 305 305 305 304 303 302 301 301 302 304 309 312 313 313 314 316 317 317
303 303 303 304 304 304 304 305 306 306 306 307 306 306 306 306 306 307 307 306 307 308 308 307 307 307 306 306 306 305 306 306 306 305 305 305 304 304 304 305 305 304 305 305 305 305 305 304 304 304 304 304 305 304 303 302 302 302 303 303 302 301 302 302 302 301 301 303 305 306 307 308 308 307 304 303 303 303 305 310 312 313 314 314 315 316 317
303 302 302 303 303 303 304 306 306 307 307 308 307 305 305 305 305 305 306 305 306 307 307 306 306 306 306 305 305 304 304 304 304 304 303 303 303 304 304 304 304 304 304 304 303 304 304 304 304 304 304 305 305 304 304 304 303 303 304 303 302 303 304 305 304 303 303 304 306 307 308 308 309 309 307 306 307 308 309 311 312 312 313 313 314 316 316
302 302 302 302 302 303 305 305 305 305 306 307 307 305 303 303 304 304 304 305 305 306 305 305 305 306 305 305 305 304 303 303 303 302 302 302 303 303 303 303 304 303 303 303 303 303 303 304 304 304 304 305 305 304 305 304 304 304 304 303 302 303 304 304 303 304 305 306 306 307 308 308 308 309 309 308 309 310 310 312 312 312 312 313 314 315 314
302 302 302 302 302 303 304 305 304 305 305 305 305 304 302 302 302 302 303 304 304 304 303 304 305 305 304 305 304 303 302 302 302 302 302 302 302 302 302 302 303 302 302 302 303 303 303 303 303 303 303 304 304 304 304 304 304 304 303 303 304 304 304 304 304 305 306 307 307 307 308 308 309 309 309 309 309 309 310 311 311 311 311 313 314 314 312
302 302 302 302 302 303 304 303 303 304 304 304 304 302 301 301 301 301 301 302 303 303 302 303 304 304 304 303 302 302 302 302 302 301 301 301 301 301 301 301 301 301 301 302 302 302 302 302 303 303 303 304 305 305 304 305 304 302 302 303 303 304 304 305 306 307 307 307 307 307 307 308 308 308 309 309 309 309 310 310 310 310 311 313 312 311 309
301 301 301 301 302 302 302 302 302 303 303 303 302 300 300 300 300 300 300 300 301 302 302 302 302 302 302 301 301 301 301 301 301 301 301 301 301 301 300 299 299 299 300 301 302 302 302 302 303 303 303 304 305 305 305 305 303 302 303 303 303 303 305 306 307 307 307 307 307 307 307 307 308 308 308 309 309 309 309 309 309 310 312 311 310 308 307
300 300 301 300 301 301 301 301 301 301 301 301 300 300 300 300 300 299 299 299 300 301 301 301 301 301 301 301 301 301 301 301 301 301 301 301 301 301 301 300 300 300 300 301 301 302 302 302 302 303 303 304 304 304 305 304 302 301 302 302 302 304 306 306 306 306 306 306 306 307 307 307 307 308 308 308 308 308 308 309 310 311 310 308 307 305 303
300 299 300 300 300 301 300 300 300 300 299 299 300 300 300 300 299 299 299 299 300 300 300 300 300 300 300 301 300 301 301 301 301 301 300 300 300 300 301 301 301 301 301 301 301 302 302 302 302 302 303 303 304 304 304 303 302 302 302 303 304 305 306 306 306 306 306 306 306 306 307 307 307 308 308 307 307 308 309 310 310 308 306 305 304 302 300
299 299 299 300 300 300 300 299 299 299 299 299 299 299 299 299 299 299 299 299 299 299 299 299 299 300 300 300 300 300 300 300 300 300 300 300 300 300 300 301 301 301 301 301 302 302 302 302 302 303 303 303 304 304 304 304 304 304 304 304 305 305 305 305 306 305 306 306 306 306 306 307 307 307 307 307 308 309 309 308 307 306 304 302 301 299 298
298 298 299 299 299 299 299 298 298 298 298 298 299 298 298 299 298 299 299 299 299 299 299 299 299 299 299 299 299 299 299 299 299 299 299 299 300 300 300 300 301 301 301 301 302 303 303 303 303 303 303 304 304 303 303 304 304 304 304 304 304 304 305 305 305 305 305 305 306 306 306 306 306 307 307 308 309 308 307 306 304 303 301 299 298 297 296
297 297 298 298 298 298 298 298 298 298 298 298 298 298 298 298 298 298 298 298 298 298 299 299 299 299 299 299 299 299 299 299 299 299 299 300 300 300 300 301 301 301 301 302 302 303 303 303 303 303 303 304 303 303 303 304 303 303 303 303 303 304 304 304 305 305 305 305 305 305 306 306 307 307 308 308 307 305 304 303 301 299 297 295 295 294 293
297 297 297 298 297 297 297 297 297 297 297 297 297 297 297 297 297 297 298 298 298 298 298 298 298 299 299 299 299 299 299 299 299 299 300 300 300 300 301 301 301 302 302 302 302 303 303 303 303 303 304 303 303 303 303 303 303 303 303 303 303 303 303 304 304 304 304 305 305 305 305 306 307 306 305 304 302 301 300 299 298 296 294 294 293 293 293
296 297 297 297 297 297 297 297 297 297 297 297 297 297 297 297 297 297 297 297 297 297 298 298 298 298 298 298 298 299 299 299 299 299 299 300 300 301 301 301 302 302 302 302 302 303 303 303 303 303 303 303 303 303 302 302 302 302 302 302 302 303 303 303 303 303 304 304 304 304 304 304 303 301 300 299 298 297 296 296 295 294 293 293 293 294 294
296 296 297 297 296 296 297 297 297 297 296 296 297 297 297 297 297 297 297 297 297 297 297 297 298 298 298 298 298 299 299 299 299 299 300 300 301 301 301 302 302 302 302 302 303 303 303 303 303 303 303 303 302 302 302 301 301 301 301 301 302 302 303 303 303 303 303 303 302 302 301 299 298 297 297 296 295 294 294 294 294 294 294 294 295 295 295
295 296 296 296 296 296 296 296 296 297 297 297 297 297 297 297 297 297 297 297 297 297 297 297 298 298 299 299 299 299 299 299 299 300 300 301 301 301 301 302 302 302 302 302 303 303 303 303 303 303 303 302 302 301 301 300 300 300 300 300 301 301 301 301 301 301 301 300 300 299 298 297 297 296 295 294 293 293 294 295 295 295 296 296 295 295 295
296 295 295 296 296 296 296 296 296 296 297 297 297 298 298 298 298 297 297 297 298 298 298 298 299 299 299 299 299 299 299 299 300 300 300 301 301 301 301 301 301 301 301 302 302 302 302 302 303 302 302 302 301 300 299 299 298 298 299 299 300 300 300 299 299 298 298 297 297 297 296 296 296 295 294 294 294 295 295 296 296 296 296 296 296 296 296
296 296 296 296 296 296 296 296 296 296 296 297 297 297 297 297 297 297 297 297 297 297 297 298 299 299 299 299 299 300 300 300 300 300 300 300 300 300 301 301 301 301 301 301 302 302 301 302 302 302 302 302 300 299 299 298 298 297 298 298 298 297 297 297 297 296 296 296 296 295 295 295 295 295 295 295 295 295 295 295 295 295 295 295 295 295 295
296 296 295 295 295 296 296 296 296 296 296 297 297 297 296 297 296 296 296 296 296 296 297 298 298 299 299 299 299 299 299 299 299 299 299 299 299 300 300 300 300 301 301 301 301 301 301 301 302 302 302 301 300 299 299 298 298 297 297 297 297 297 297 297 296 296 295 295 295 295 295 295 296 296 296 296 296 296 296 296 296 296 296 295 295 295 295
295 295 295 295 296 296 296 296 296 296 296 296 296 296 296 296 296 296 296 296 296 297 297 298 298 298 298 298 299 299 298 298 298 298 298 299 299 299 299 300 300 300 300 300 300 300 301 301 301 302 302 301 300 299 299 298 298 298 298 298 298 297 296 296 296 295 295 295 295 296 296 296 296 297 296 296 296 296 296 296 296 296 296 296 296 296 295
295 295 295 296 296 296 296 295 295 295 295 295 295 295 296 296 296 296 296 296 297 297 298 298 298 298 298 298 298 298 298 298 297 298 298 298 298 299 299 299 299 299 299 299 300 300 301 301 301 302 301 300 300 299 299 299 299 298 298 298 298 297 296 296 296 296 295 296 296 296 296 297 297 296 296 296 296 296 296 296 296 296 296 296 296 296 296
295 295 295 295 295 295 295 295 295 295 295 295 295 295 295 296 296 296 296 297 297 297 298 298 298 298 298 298 297 297 297 297 297 297 297 297 297 297 297 297 297 297 298 298 299 300 301 301 301 301 301 300 300 300 300 299 299 299 298 298 298 298 297 297 297 297 297 297 297 297 297 297 297 296 296 296 296 297 297 297 297 296 296 296 296 296 296
295 295 295 295 295 295 294 295 295 295 295 295 295 295 295 296 296 296 297 297 297 297 297 297 297 297 297 297 297 297 296 296 296 296 295 295 295 296 296 296 296 297 297 298 299 300 301 301 301 301 301 300 300 300 300 300 299 299 299 298 298 298 298 297 297 297 297 297 297 297 297 297 297 296 297 296 296 297 297 297 297 297 296 296 296 296 296
295 295 295 295 295 295 295 295 295 295 295 295 295 295 295 295 296 296 296 296 296 296 296 295 295 295 295 295 295 295 294 294 294 294 293 293 294 294 295 295 296 297 298 299 300 301 302 301 301 301 301 300 300 300 300 300 299 299 299 298 298 298 298 297 296 296 296 296 296 296 296 296 296 296 296 297 297 297 297 297 296 297 297 296 296 296 296
295 295 295 295 295 295 295 295 295 295 295 295 294 294 294 294 294 294 294 294 294 293 293 293 293 293 293 293 293 293 293 293 292 293 293 292 293 293 294 295 296 297 298 299 299 300 300 300 300 300 300 300 300 300 299 299 299 299 299 299 298 298 298 297 296 295 295 296 296 296 296 296 296 296 296 297 297 297 297 296 296 296 297 296 296 296 296
295 295 295 295 295 295 295 295 295 295 294 294 293 293 292 292 292 292 292 292 292 292 291 291 291 291 291 291 292 292 292 292 292 292 292 292 292 293 293 294 295 296 297 298 298 298 299 299 300 300 300 299 299 299 299 299 299 300 299 299 298 298 298 297 296 295 295 295 295 296 296 296 296 297 296 296 296 297 297 296 296 296 296 296 297 297 296
295 295 295 295 295 294 294 294 294 294 293 293 292 292 292 291 291 291 291 291 291 291 290 290 290 290 291 291 292 292 292 292 292 292 291 291 292 292 293 294 296 296 297 297 298 298 299 299 300 299 299 299 299 299 299 299 300 300 299 299 298 298 298 297 296 295 295 295 295 295 296 296 296 296 296 296 297 297 296 296 296 296 296 296 297 297 296
295 295 295 295 294 294 294 293 293 293 293 292 292 291 291 291 291 291 291 291 291 290 290 290 290 291 291 292 292 292 292 291 291 291 291 292 292 292 293 294 296 297 298 298 299 299 299 300 300 300 300 299 299 300 300 300 300 299 299 299 299 299 298 298 296 296 296 295 295 295 296 297 297 297 297 297 297 297 296 296 296 296 296 296 296 296 296
294 294 294 294 294 293 293 293 293 293 292 292 292 291 291 291 291 291 291 291 291 291 291 291 291 292 292 292 293 292 292 292 292 291 292 292 292 292 293 295 297 298 299 299 299 299 300 300 300 300 300 300 300 300 299 299 299 299 299 299 299 299 298 298 297 297 297 296 296 296 297 297 296 297 297 297 297 296 296 296 296 297 297 297 296 296 296
294 294 294 293 293 293 293 293 293 293 292 292 292 292 291 291 291 291 291 290 290 290 290 291 291 292 292 292 292 292 292 293 292 292 292 292 292 294 296 297 298 298 298 297 297 298 299 300 300 300 299 299 299 298 298 299 299 299 299 299 299 298 297 297 297 297 297 297 297 297 297 297 297 297 297 297 296 296 296 296 297 297 296 296 295 296 296
293 293 293 293 293 293 293 293 292 292 292 292 292 292 292 292 291 291 291 291 290 290 290 290 290 291 291 291 292 292 292 292 292 292 292 293 293 295 296 297 296 296 296 296 296 297 298 298 299 299 298 298 298 298 299 299 299 300 300 300 298 297 297 297 297 297 297 297 297 297 297 297 297 297 297 296 296 296 296 297 297 296 294 294 295 296 296
293 293 293 293 293 293 293 293 293 293 293 292 292 292 292 292 291 291 291 291 291 291 290 290 290 290 290 290 291 291 291 292 292 292 292 292 292 293 294 295 295 295 295 294 295 296 297 298 298 298 298 299 299 299 299 299 299 299 299 299 298 297 297 297 297 297 297 297 297 297 297 297 297 297 296 296 296 296 296 296 295 294 293 294 296 296 296
293 293 293 293 293 293 293 293 293 293 293 292 292 292 292 291 291 291 290 290 290 290 290 290 290 289 289 289 289 290 290 291 291 291 291 291 291 291 292 293 294 294 294 294 294 295 295 296 296 297 297 298 298 299 299 299 299 299 299 299 299 298 298 298 298 298 298 297 297 297 297 297 297 296 296 296 296 296 296 295 294 293 293 295 296 296 296
293 293 293 293 293 293 293 293 293 292 291 291 291 290 290 289 289 289 288 288 288 288 288 288 289 288 288 287 287 288 289 289 290 290 290 290 290 290 291 291 292 292 293 294 294 294 294 294 294 295 295 295 296 297 298 299 299 298 298 298 298 298 298 298 297 297 297 297 297 297 297 296 296 296 296 296 296 295 294 293 293 294 294 295 296 296 296
293 293 293 293 293 293 293 293 292 291 289 288 288 288 288 288 287 287 287 286 286 286 286 287 287 287 286 286 286 286 287 287 288 289 289 289 289 290 290 290 290 291 291 291 292 293 293 293 294 294 295 295 296 296 297 297 298 298 298 298 297 297 297 297 297 297 297 297 297 296 296 296 296 296 295 295 294 294 293 293 293 294 294 294 295 295 295
293 293 293 293 293 293 293 293 292 290 288 287 287 287 287 287 287 286 286 286 286 286 286 286 286 286 286 286 286 287 286 286 286 286 287 287 288 288 288 288 288 289 290 290 290 290 291 291 292 293 294 294 295 296 296 297 297 298 298 298 297 297 297 297 297 297 297 297 296 296 296 296 296 295 294 294 293 293 293 293 293 293 294 294 294 294 294
293 293 293 293 293 294 294 293 291 290 288 288 287 287 287 286 286 286 286 285 285 286 286 286 286 286 286 286 286 287 287 287 286 286 286 286 286 286 286 287 287 288 288 289 289 289 289 289 290 290 291 291 292 292 293 294 295 296 296 296 296 296 296 297 297 297 296 296 296 296 295 295 294 294 293 293 293 293 293 293 293 293 292 292 292 293 294
294 293 293 293 294 294 294 293 291 289 288 288 287 287 287 286 286 286 285 285 285 285 285 285 286 286 286 286 286 286 285 286 286 287 287 287 286 286 286 286 287 287 287 288 288 288 288 288 288 289 289 289 289 290 290 291 291 291 292 292 292 293 293 293 294 294 294 294 294 293 293 293 292 292 292 292 292 292 292 291 290 290 291 291 292 292 293
294 294 293 293 294 294 294 292 290 288 288 288 287 287 287 286 286 286 285 285 285 285 285 285 285 285 285 286 286 286 286 285 285 285 286 286 286 285 286 286 287 287 287 287 287 288 288 288 288 288 288 288 289 289 289 289 290 290 290 290 290 290 291 291 291 291 291 291 291 291 291 291 291 291 291 290 289 289 288 288 289 290 291 291 292 292 292
294 294 294 294 294 294 293 291 289 289 289 290 289 288 287 286 286 286 285 285 285 285 285 285 285 284 284 284 285 286 286 286 285 284 284 285 284 285 285 286 286 286 287 287 287 287 287 287 287 287 288 288 288 288 288 288 289 289 289 289 290 290 290 290 290 290 290 289 289 289 289 289 289 288 288 287 287 287 287 288 289 290 290 290 290 291 291
294 294 294 294 294 294 292 291 290 291 291 290 290 288 287 287 286 286 285 285 285 285 285 285 285 284 284 283 284 284 285 285 284 284 283 283 283 284 284 284 284 285 285 285 286 286 286 286 286 286 287 287 287 287 287 288 288 288 289 289 288 288 288 288 288 288 288 288 288 287 287 287 287 287 286 287 287 287 287 288 289 289 289 289 289 290 291
293 294 294 294 294 293 292 291 292 292 291 290 290 289 288 287 287 287 287 287 286 286 285 285 285 284 284 284 283 283 283 284 284 283 283 283 283 283 283 283 283 284 284 284 284 284 285 285 286 286 286 286 286 286 286 287 287 287 287 287 287 286 286 287 286 286 286 286 286 286 286 286 286 286 287 287 286 286 287 288 288 288 288 288 288 289 289
291 292 292 293 293 292 291 292 292 291 290 290 290 289 288 289 289 288 288 287 287 286 285 285 284 284 284 284 284 283 283 283 283 283 283 283 283 283 283 283 283 283 283 283 283 283 283 284 284 284 285 285 285 285 285 286 286 285 285 285 286 285 285 285 285 285 286 286 286 285 285 285 286 287 287 287 286 286 287 288 288 287 287 288 288 288 289
290 291 291 292 292 292 292 292 291 291 290 290 290 289 289 289 289 288 287 287 287 287 286 285 285 284 284 283 283 283 283 283 283 283 283 283 283 283 283 283 282 282 283 283 283 283 283 283 284 284 284 284 285 285 285 284 284 284 284 284 284 284 284 285 285 285 285 285 285 285 285 285 286 287 287 287 287 287 288 288 287 287 287 288 288 288 289
292 292 292 292 292 292 292 292 291 291 291 291 290 289 289 289 289 288 287 287 287 287 287 286 285 284 284 283 283 283 282 282 283 282 283 283 283 283 283 282 282 282 282 282 282 282 283 283 284 284 284 284 284 283 283 283 283 283 283 283 283 284 284 284 285 285 285 285 285 285 285 285 286 287 287 287 287 287 287 287 287 287 287 288 288 288 288
Wind_Speed
13 13 12 9 8 10 12 12 12 12 10 10 10 11 12 11 10 11 11 12 12 10 8 9 10 10 11 10 9 9 9 11 11 11 11 10 9 8 7 6 6 6 6 6 7 7 7 6 7 7 6 7 8 8 8 8 8 8 8 7 7 7 7 7 7 7 7 8 8 9 9 8 9 11 11 12 13 15 16 17 18 20 20 22 24 26 28
13 13 13 11 10 11 13 14 14 14 14 14 13 13 14 14 15 14 12 13 11 8 9 9 4 4 6 6 5 8 10 12 12 12 11 10 9 7 6 5 5 4 4 5 6 7 7 6 7 7 7 8 9 9 10 12 12 11 11 11 11 10 10 10 11 11 11 11 11 11 11 11 10 10 11 12 12 12 13 15 16 17 17 17 19 22 25
11 13 14 13 12 13 15 15 15 15 15 15 14 14 12 13 14 13 12 12 10 8 13 12 3 2 2 3 6 9 11 12 12 12 11 9 8 7 6 5 4 4 4 4 5 6 7 8 8 8 8 9 10 11 12 13 14 14 14 14 14 13 13 13 13 13 13 13 14 14 14 15 14 14 15 15 14 14 14 14 15 16 17 16 17 19 22
9 10 13 13 12 14 16 16 16 15 15 13 13 12 10 10 11 11 11 12 10 8 12 16 12 7 7 8 8 10 10 11 13 12 11 9 8 6 5 4 3 3 4 4 5 5 6 7 8 8 9 9 10 12 13 14 14 15 15 16 16 16 16 16 15 14 14 14 14 15 15 16 16 16 17 18 18 17 17 17 15 16 18 18 17 17 19
9 8 8 8 8 10 12 10 10 14 16 15 15 14 13 13 12 10 10 9 6 4 4 9 12 12 11 10 9 10 11 12 13 12 11 9 7 6 4 3 3 3 3 4 5 6 7 7 7 9 10 11 12 13 14 15 15 16 15 16 16 16 17 17 16 17 16 15 14 14 15 16 17 17 18 19 19 19 19 20 18 16 16 18 18 17 19
9 7 4 4 7 9 5 1 0 6 10 12 14 13 13 12 10 8 9 9 7 6 5 7 10 9 6 5 6 8 10 12 12 11 9 8 6 4 3 2 2 3 3 4 5 6 7 8 10 12 12 13 14 15 16 16 16 17 16 15 15 17 17 17 17 17 17 16 16 16 17 17 18 19 19 19 19 19 19 20 21 20 18 19 18 17 20
8 6 4 6 8 5 2 4 3 1 3 6 9 9 6 5 6 7 9 10 8 7 6 6 6 4 2 3 5 7 9 10 11 10 8 5 3 2 1 1 2 3 4 5 5 6 7 9 11 12 12 13 15 16 17 18 19 19 18 17 17 18 19 19 19 19 18 17 17 18 19 19 20 20 20 20 20 20 19 19 19 18 16 18 19 19 21
7 6 6 8 5 3 2 1 2 1 3 4 6 6 2 2 3 4 4 4 3 1 1 2 3 4 5 5 5 5 6 8 9 8 5 2 0 1 2 3 4 5 6 6 7 8 9 9 10 10 11 12 14 16 18 20 20 20 20 20 21 21 21 21 22 21 21 20 19 18 18 18 19 20 20 21 20 20 21 19 17 15 14 16 18 21 22
7 8 9 8 8 7 6 4 1 1 2 2 3 5 2 3 3 2 2 1 1 0 2 2 2 5 7 7 6 7 7 6 5 3 1 1 2 4 4 5 5 6 7 7 8 9 10 10 10 11 12 12 13 15 17 19 20 20 20 20 21 21 21 21 23 24 24 23 20 18 17 17 18 19 20 21 21 20 21 19 16 16 15 15 18 22 25
6 8 9 8 10 9 3 2 4 3 2 2 3 5 3 3 4 3 2 2 2 1 0 0 2 6 8 7 6 7 6 4 2 2 3 4 5 5 6 6 6 7 8 9 10 11 12 13 13 13 13 13 14 15 15 17 18 18 19 20 22 21 20 20 22 24 24 23 21 19 18 17 17 18 19 21 20 19 19 17 16 16 16 16 19 23 25
6 8 8 8 9 6 2 5 3 3 2 2 3 5 4 2 5 4 3 3 3 3 3 4 4 6 8 7 6 7 4 4 4 5 6 6 7 7 7 8 8 9 10 12 13 13 14 14 15 14 15 15 15 16 16 17 17 17 20 22 22 22 22 23 24 24 24 23 21 20 19 19 18 18 19 20 19 17 16 16 17 18 17 18 21 23 26
8 8 8 7 7 3 3 4 3 4 3 1 4 6 3 4 8 7 5 5 5 5 6 6 5 7 7 5 1 5 7 7 6 7 8 9 10 10 10 10 10 12 13 13 14 14 14 16 16 17 17 17 17 18 18 18 19 20 22 23 22 23 24 24 24 24 23 22 21 21 20 19 18 18 18 19 18 17 16 16 17 18 19 19 21 24 27
9 10 9 8 6 1 5 4 4 4 1 3 6 5 2 6 10 10 9 8 8 7 8 7 7 7 7 8 9 10 10 10 9 9 10 10 12 12 12 14 15 15 15 15 16 16 16 17 17 18 18 18 18 19 19 20 21 24 25 25 25 25 24 23 22 22 21 20 20 20 20 19 19 19 18 18 17 17 19 19 18 19 20 21 22 25 28
8 8 7 8 5 3 7 5 3 2 2 4 3 4 5 8 11 12 11 11 10 10 9 9 9 10 11 12 13 13 14 14 13 13 14 14 15 15 17 18 19 19 18 18 18 18 17 17 18 18 18 19 19 19 20 21 24 26 26 26 27 27 24 22 21 21 21 20 20 20 19 18 19 19 18 17 17 19 21 20 19 20 21 21 22 27 29
7 7 8 9 5 4 8 6 2 1 3 5 6 8 10 11 12 12 11 11 10 11 11 11 12 13 13 13 13 14 15 16 16 16 16 17 18 18 19 20 20 20 20 20 19 19 19 19 19 19 20 21 21 21 22 24 27 28 28 29 29 27 23 22 21 22 22 21 20 19 18 19 19 19 18 18 19 20 20 18 18 20 20 20 23 26 26
4 6 5 3 1 2 5 6 4 3 6 9 11 13 14 13 11 10 9 9 9 10 11 13 14 15 15 15 15 15 16 16 16 17 18 18 19 19 19 19 18 19 20 20 20 20 20 20 20 21 21 22 22 22 23 25 27 28 28 28 26 24 23 23 23 23 22 21 21 20 20 21 19 18 19 19 20 20 18 17 18 19 21 24 27 26 23
4 7 8 7 8 9 9 9 8 10 12 12 12 13 14 14 12 11 11 12 12 11 12 14 14 15 16 17 17 17 18 18 19 20 20 20 21 20 20 19 18 18 20 20 20 20 20 20 22 22 22 22 23 23 23 24 25 25 25 24 24 23 23 23 23 23 22 22 21 20 20 20 18 18 19 20 20 20 18 18 19 24 28 28 25 22 19
9 11 11 11 13 14 13 13 14 15 14 12 11 12 13 14 14 14 15 15 16 16 16 16 16 16 17 18 18 19 20 21 22 22 23 23 22 22 21 20 19 19 20 20 20 20 20 21 21 22 21 22 23 23 23 24 24 24 24 24 24 24 23 23 23 22 22 22 21 20 19 18 18 19 20 19 19 20 19 21 26 29 28 24 21 18 15
8 7 6 8 12 15 16 17 17 16 15 13 13 14 15 15 15 16 16 17 18 19 18 19 20 20 20 20 21 21 21 22 23 23 23 23 22 22 22 21 21 21 21 20 19 20 21 21 21 21 21 21 22 23 23 23 23 23 23 24 24 24 24 23 22 21 21 21 20 19 20 20 19 19 19 18 19 21 24 28 29 27 23 20 17 14 12
8 9 11 14 17 18 17 17 17 16 15 16 17 18 17 17 17 18 18 19 19 20 20 21 23 23 23 23 23 23 23 22 22 23 23 23 22 22 22 21 21 21 21 21 21 21 22 22 21 20 20 20 21 22 21 21 21 22 23 23 24 24 23 23 22 21 21 21 21 22 22 20 18 16 17 21 25 27 28 26 24 22 20 18 15 13 12
9 10 12 14 15 15 16 17 17 18 18 19 21 21 21 21 22 22 22 22 21 22 22 23 24 25 25 24 24 24 24 24 24 24 24 24 23 23 22 21 21 21 21 22 22 22 22 21 20 20 20 20 20 19 19 20 21 22 22 22 21 20 21 22 23 22 21 21 21 20 18 17 19 22 25 26 26 25 21 19 18 19 19 18 17 15 14
8 8 11 13 12 12 16 19 21 22 23 24 24 25 25 25 24 24 25 25 25 25 25 24 24 25 25 24 23 24 24 24 25 24 24 24 24 24 23 22 21 21 21 21 20 21 21 20 19 19 18 18 18 17 18 19 19 18 16 15 14 14 17 19 21 20 19 19 19 22 27 30 32 31 28 25 23 23 21 20 20 20 20 20 19 17 15
10 13 17 19 17 17 20 24 25 26 26 26 25 25 25 24 24 24 24 25 25 25 25 24 23 24 24 24 24 24 25 25 25 25 24 24 25 24 23 22 21 21 21 20 19 20 20 19 19 18 17 17 19 17 15 14 11 9 9 10 10 10 12 14 16 19 22 26 29 32 33 32 31 30 29 26 24 25 24 23 22 21 20 19 17 15 13
16 20 22 22 21 22 24 26 26 26 26 25 25 24 23 23 23 23 24 24 25 24 24 23 22 22 24 24 24 25 26 26 25 25 24 24 24 24 23 22 22 22 21 20 20 19 18 17 18 17 15 16 16 11 6 3 0 4 7 10 13 17 20 22 25 29 32 33 33 32 31 30 30 31 31 29 27 25 23 21 19 18 16 15 13 12 11
17 21 22 22 23 24 25 26 26 25 23 23 23 23 24 24 23 23 25 26 26 26 26 26 25 23 23 24 25 24 25 25 25 25 25 25 24 24 23 23 22 22 21 20 19 18 17 17 16 15 13 12 7 2 7 9 13 19 22 25 27 29 30 31 31 31 31 30 30 30 31 31 31 31 30 29 27 24 20 17 15 14 12 11 10 9 8
18 22 24 23 23 23 22 23 23 23 22 22 23 25 26 25 23 22 23 25 25 25 26 27 26 24 23 24 24 23 24 25 25 24 24 24 24 23 23 24 23 22 20 19 19 18 16 15 15 14 11 6 9 12 12 14 20 25 28 30 30 30 30 30 30 30 30 29 30 30 31 31 30 28 26 25 24 21 19 16 13 11 9 8 7 6 6
21 21 20 19 18 19 19 20 22 23 24 23 24 24 24 22 20 20 21 21 21 22 22 23 23 22 22 22 22 23 24 24 24 23 22 22 22 21 21 21 21 20 20 20 20 18 15 14 15 13 10 15 20 18 15 17 20 22 23 25 27 28 29 27 25 25 27 28 29 30 30 28 26 24 23 21 20 18 16 14 12 9 7 6 5 4 5
19 18 16 15 16 19 20 20 21 22 22 21 21 21 20 19 19 20 20 20 19 19 19 19 18 18 19 19 20 20 20 20 20 19 19 19 19 19 20 21 21 20 20 20 19 17 14 15 16 14 16 24 25 20 17 18 18 16 15 16 18 21 24 23 19 19 22 23 24 24 23 21 20 20 19 17 14 13 11 10 9 7 5 4 3 3 4
16 17 17 16 17 18 18 18 18 19 18 18 17 17 17 18 18 19 19 18 17 16 15 15 15 15 15 15 16 17 17 17 18 19 20 21 22 22 24 24 22 20 19 19 18 16 15 17 18 18 22 28 27 21 19 19 18 15 12 10 10 12 14 16 16 17 18 19 19 19 19 18 16 16 14 12 10 10 9 8 7 7 5 2 2 4 5
16 16 16 15 15 16 16 16 16 16 16 16 15 15 16 17 17 17 16 15 14 12 12 14 14 14 14 15 16 17 18 18 18 19 18 19 21 24 24 20 16 14 15 16 16 16 17 20 21 22 27 30 27 22 18 18 17 14 10 7 7 7 10 15 19 19 18 18 18 19 18 15 13 12 11 9 8 7 7 6 6 6 5 3 1 1 2
15 14 14 14 14 15 15 15 15 16 15 15 15 15 15 14 14 13 12 11 11 10 11 12 12 12 13 14 15 15 14 13 13 13 13 14 16 18 18 14 11 11 13 14 12 14 20 23 22 25 30 31 26 20 17 16 15 13 9 7 6 7 11 16 19 18 18 18 18 17 14 12 10 9 8 6 6 5 5 5 5 5 4 4 3 3 4
14 15 15 14 14 15 15 14 15 16 15 13 12 12 11 10 10 9 9 9 9 9 9 9 9 10 10 11 11 10 9 7 6 6 6 6 7 6 4 3 6 10 12 11 12 18 25 27 26 29 32 30 24 18 15 13 11 8 5 5 6 8 12 16 18 18 16 16 15 13 11 9 8 7 6 5 5 5 5 5 4 4 3 3 3 5 6
16 16 15 14 15 16 16 16 15 13 10 9 9 10 9 9 9 9 8 8 8 8 8 8 8 7 7 7 6 4 2 1 1 2 4 6 7 8 11 12 14 16 17 19 22 27 30 31 32 32 30 25 19 16 13 11 6 3 3 4 6 9 14 18 19 18 17 15 14 12 11 9 8 6 5 5 5 5 5 4 4 3 3 3 4 6 6
15 15 14 14 14 14 14 14 11 8 6 7 8 9 9 9 9 9 9 9 9 9 8 7 6 7 7 7 7 6 6 8 9 11 14 16 17 18 19 19 20 23 26 27 29 31 32 32 32 28 23 19 16 13 10 7 3 2 4 6 7 10 15 20 20 19 16 15 14 12 10 8 7 5 5 5 5 4 3 3 3 3 4 4 5 5 5
14 13 12 11 10 8 8 8 7 6 7 8 9 11 12 12 13 15 15 15 14 13 12 12 13 16 18 20 21 21 19 18 18 19 21 24 26 27 28 27 28 29 32 32 31 31 30 28 24 21 18 15 13 9 7 5 4 4 6 7 8 11 16 19 20 19 17 15 14 12 9 7 6 5 5 4 3 2 2 3 3 3 4 4 4 5 5
12 11 9 7 6 6 6 6 8 9 10 10 11 13 14 16 17 19 19 20 20 21 21 21 22 25 27 29 30 30 29 27 25 26 28 31 34 35 36 36 35 33 33 32 30 26 24 22 20 17 15 13 10 9 8 8 8 8 8 8 9 11 14 17 19 19 18 16 14 10 8 6 6 5 4 3 3 3 3 3 4 3 3 3 4 6 7
10 8 6 4 4 6 9 11 12 12 12 13 14 15 15 16 17 18 19 20 22 23 23 23 24 26 27 28 29 31 32 32 32 32 33 35 38 40 40 39 36 35 33 31 27 22 20 18 16 14 13 12 12 12 12 11 9 8 8 8 9 12 16 18 19 19 18 15 12 9 7 6 5 4 4 4 3 3 3 4 4 4 4 5 6 7 7
7 6 5 6 9 13 14 12 10 10 11 13 15 16 16 16 16 17 18 19 20 20 21 22 22 23 24 25 27 29 30 31 31 33 35 37 41 43 42 39 37 35 33 30 27 24 21 18 16 16 17 17 17 15 12 9 8 7 7 8 9 13 16 18 19 18 17 13 10 8 7 6 5 5 4 4 3 3 3 4 5 6 6 6 6 6 5
4 4 7 11 15 16 15 13 13 13 12 12 13 14 15 15 15 16 17 17 18 18 18 19 20 21 22 23 24 26 27 27 28 31 34 37 40 42 40 37 35 32 29 26 25 24 23 21 20 19 18 17 15 13 10 9 7 7 7 8 9 12 14 15 16 15 14 11 9 8 7 6 5 4 4 3 3 3 4 5 6 7 7 6 5 5 4
5 8 13 16 17 16 15 14 14 14 12 10 10 12 13 14 15 16 16 16 16 17 16 16 17 19 21 21 22 23 24 25 27 29 31 33 36 37 36 34 31 28 25 24 23 22 20 19 18 18 17 15 13 11 10 9 8 7 6 6 7 9 11 12 11 10 9 8 7 6 5 5 4 3 3 3 3 4 5 6 6 7 6 5 5 4 4
8 12 16 16 14 13 13 12 12 12 12 11 10 10 11 13 14 15 16 16 16 17 16 15 16 19 21 22 23 24 24 24 25 26 28 30 31 32 31 28 25 22 22 21 20 18 17 17 16 16 16 14 12 11 10 9 8 8 7 7 6 7 8 8 7 6 5 5 5 4 3 3 3 2 2 2 3 4 5 5 5 5 5 4 4 4 5
10 14 15 14 12 11 10 10 11 12 13 13 12 11 12 13 14 14 15 16 16 17 17 17 17 19 20 21 22 23 24 24 24 24 25 26 27 27 26 23 20 18 17 17 16 15 14 13 13 13 13 12 12 11 10 8 6 6 6 6 6 6 6 6 4 3 3 3 3 3 3 3 2 1 1 2 3 3 3 3 3 3 3 4 4 4 5
11 13 13 11 10 9 8 8 10 11 12 13 13 12 13 13 13 13 14 15 15 16 17 17 17 18 18 18 19 20 21 22 23 23 23 23 23 23 23 21 17 15 15 14 14 14 13 12 11 11 10 10 10 10 9 8 7 6 6 5 5 5 5 4 3 2 2 2 2 2 2 2 1 1 1 1 1 1 2 2 3 3 4 4 4 4 4
11 12 12 11 9 8 7 7 8 9 11 11 11 11 12 13 13 13 13 13 14 14 15 16 16 17 17 17 17 18 18 18 19 19 20 20 20 20 20 19 17 15 14 13 13 13 12 12 11 10 9 8 8 8 7 7 7 6 6 5 4 4 4 4 4 4 4 4 3 3 3 2 2 2 2 2 2 2 3 4 5 5 6 5 5 4 4
11 12 12 11 9 7 6 6 7 8 9 10 10 10 11 11 12 12 13 14 15 15 16 16 16 16 16 17 18 18 18 17 17 16 17 17 18 18 17 16 15 15 14 13 12 12 11 11 10 9 8 8 7 6 6 6 6 6 5 5 4 4 4 4 4 4 4 4 3 3 3 3 3 3 3 3 2 2 3 4 5 5 4 4 3 3 3
11 12 12 10 9 7 6 8 9 9 8 8 9 10 10 11 11 12 13 14 15 15 16 16 17 16 16 16 14 14 15 16 17 16 16 16 16 15 14 14 13 13 12 11 11 11 11 11 10 9 8 7 6 5 5 6 6 6 6 5 5 5 5 4 4 4 4 4 3 3 3 3 3 2 1 1 1 2 3 4 4 5 5 6 6 6 5
10 12 12 10 8 7 7 8 8 7 6 5 5 7 8 9 10 10 11 13 13 14 15 15 16 16 16 15 13 11 11 13 14 16 16 16 15 14 13 12 11 11 10 10 11 10 10 10 9 8 8 7 6 5 5 5 5 5 6 6 6 6 5 5 4 4 4 3 3 2 2 2 2 2 2 3 4 5 6 6 7 7 8 8 9 9 8
10 12 12 10 8 8 9 8 7 5 4 4 4 4 6 7 8 9 10 11 12 13 14 15 15 15 15 15 14 13 12 11 11 13 14 14 14 13 13 12 12 11 11 10 10 10 10 10 9 8 8 7 6 6 5 5 4 4 4 5 5 5 5 5 5 4 4 4 4 3 4 4 4 4 5 5 6 6 6 6 7 8 9 10 10 11 11
8 9 10 9 9 10 10 8 6 5 4 4 3 2 3 4 5 6 7 8 9 10 11 13 14 14 13 13 14 14 14 13 12 13 13 13 13 13 13 13 12 12 12 11 10 10 9 8 8 8 8 8 7 6 5 5 5 5 4 4 5 5 5 5 5 4 4 4 4 4 5 5 5 5 5 5 5 5 4 5 6 8 10 10 11 13 14
8 9 9 9 9 10 9 7 6 5 5 4 3 2 2 2 2 2 3 4 5 7 9 10 12 12 12 12 13 13 13 13 13 13 12 13 12 13 13 13 13 13 12 12 11 11 10 9 8 7 7 7 6 6 6 6 6 5 5 6 6 5 5 6 5 5 6 6 6 5 5 6 6 5 4 4 4 3 3 4 6 8 9 9 11 13 14
8 9 9 9 9 9 8 7 6 5 5 5 4 3 2 2 1 0 2 3 4 5 6 8 9 9 9 10 11 11 11 11 11 11 11 12 12 12 12 13 13 13 13 13 13 12 11 11 10 8 7 6 5 5 5 6 6 5 5 5 5 4 5 6 5 5 5 5 4 4 5 5 5 4 4 3 2 2 3 5 7 8 8 8 10 11 13
11 10 10 9 8 8 8 8 7 7 6 6 5 4 3 2 2 1 1 2 3 3 3 5 6 7 7 7 7 7 8 8 9 10 11 11 11 12 12 12 12 13 13 13 13 13 13 13 12 11 10 8 6 4 4 5 6 6 6 6 5 4 4 4 4 4 4 4 3 4 4 4 4 3 3 2 3 3 6 8 9 9 8 8 9 10 11
Wind_Direction
263 268 271 272 268 263 265 266 264 261 254 247 246 248 256 264 261 261 280 281 262 252 255 246 226 212 210 209 209 204 188 179 176 172 171 167 158 146 132 115 97 81 70 59 50 45 45 42 36 31 29 17 6 358 352 345 339 336 335 333 329 323 314 301 285 274 269 265 263 265 268 268 265 259 253 248 243 240 240 245 252 255 251 247 250 249 244
268 267 264 259 255 257 259 257 256 257 257 255 254 253 254 257 259 264 279 281 266 260 273 273 248 206 224 219 195 193 192 186 182 182 181 172 159 147 130 113 100 83 64 51 41 27 12 6 5 4 2 0 356 349 341 337 336 334 330 330 328 323 318 310 301 294 285 277 271 268 269 271 272 272 270 265 259 253 249 248 250 249 243 238 242 246 244
269 267 263 256 251 256 259 256 255 256 257 254 253 255 254 253 260 264 265 267 265 260 263 263 254 114 186 200 191 197 196 189 187 188 183 171 157 146 128 109 95 74 58 43 35 22 2 352 351 346 341 342 341 336 332 333 332 330 328 327 325 322 319 314 311 306 300 294 288 280 274 270 267 268 271 274 274 269 262 255 249 249 248 237 233 242 243
268 265 260 257 261 267 263 257 253 251 251 251 251 252 246 241 250 257 256 259 264 261 253 250 249 246 241 237 227 211 194 189 193 191 182 171 157 144 129 109 89 66 45 24 15 10 358 351 350 342 336 334 332 326 325 328 328 328 328 326 322 321 319 315 313 309 303 299 294 288 284 278 271 267 266 267 269 270 270 269 259 250 248 243 238 238 234
272 271 268 273 281 276 267 258 245 240 244 250 252 252 249 244 244 251 255 261 281 310 275 252 256 259 257 255 244 219 195 189 191 187 176 166 153 140 128 103 76 47 24 8 353 347 344 341 336 334 332 330 327 324 324 326 327 327 327 324 321 320 318 316 312 306 301 297 292 286 285 282 278 274 270 266 265 265 265 267 263 251 244 242 237 230 229
269 270 277 285 268 259 264 15 217 244 255 262 261 262 262 259 258 266 274 278 287 295 282 268 270 271 266 255 232 209 197 193 189 180 168 158 148 138 125 90 48 19 360 346 337 336 334 329 326 329 330 327 325 325 325 324 324 324 323 320 316 316 317 315 308 302 298 293 289 285 284 283 281 278 275 271 270 267 263 260 258 253 244 238 231 226 232
267 269 258 255 257 258 65 75 85 275 281 280 278 279 281 289 289 284 284 284 281 277 271 263 262 249 192 185 197 195 196 195 185 172 162 155 148 137 107 24 356 348 341 331 327 326 323 323 326 329 327 323 321 321 321 321 321 321 320 316 314 314 314 311 306 301 297 292 288 286 284 283 281 278 275 272 271 269 264 255 251 249 243 235 229 227 235
254 255 242 243 267 348 20 192 153 167 245 252 265 261 233 54 339 294 290 294 299 301 216 192 191 180 164 157 162 171 178 180 178 175 171 161 123 340 331 332 334 330 326 323 318 316 317 318 320 318 314 312 313 315 317 319 320 320 318 316 316 315 312 307 304 300 297 294 289 284 280 278 277 276 275 273 270 266 260 252 245 242 238 232 229 229 234
247 255 253 255 275 286 270 239 153 63 288 278 285 271 236 92 42 343 341 340 348 39 166 158 163 185 184 167 138 126 130 141 158 181 210 321 319 323 322 321 323 321 319 319 313 310 311 310 308 308 306 305 306 308 311 314 315 315 313 312 314 313 308 303 300 298 296 294 289 282 276 273 271 272 273 272 269 263 256 248 241 239 235 228 226 229 232
243 256 264 264 267 273 280 90 86 56 3 328 303 282 254 113 76 29 7 358 337 320 313 246 215 210 216 207 151 116 103 98 81 325 312 313 312 316 316 313 314 313 309 309 308 305 305 305 305 304 302 299 299 298 301 305 307 307 305 307 309 305 299 296 295 295 293 289 285 280 275 271 269 267 267 267 264 259 251 242 237 238 233 226 227 232 235
245 254 264 262 263 274 45 72 63 48 26 333 285 257 241 61 42 23 355 345 336 330 344 328 269 238 239 225 154 102 41 355 352 328 316 318 315 312 312 309 307 308 308 309 309 308 307 306 306 304 300 297 294 292 294 297 298 297 299 303 304 299 295 295 294 291 289 285 281 276 273 270 268 266 266 264 258 251 246 241 238 235 228 226 231 236 237
246 249 257 262 269 291 58 59 32 42 52 340 269 244 234 15 7 357 341 320 313 323 334 321 277 253 258 264 36 32 344 326 333 325 317 318 314 312 312 308 304 306 307 307 307 307 307 306 305 304 300 295 292 291 294 295 294 296 299 299 297 294 293 293 291 289 286 282 278 275 271 269 268 267 266 263 256 248 238 231 230 228 227 233 238 236 230
250 250 255 263 269 342 61 50 41 47 58 236 249 256 321 352 340 343 339 315 305 314 318 305 278 270 287 309 324 327 317 313 314 311 309 309 308 308 308 307 306 305 303 302 302 303 303 303 302 301 298 293 290 291 292 291 292 296 298 297 294 293 290 287 286 285 280 275 272 270 268 268 267 265 263 260 253 241 231 228 231 233 234 239 237 225 214
256 253 258 266 263 70 53 31 49 53 278 243 260 321 329 324 324 331 328 314 305 304 301 296 289 287 292 300 304 305 305 306 306 307 308 307 307 308 307 306 307 306 303 301 300 300 300 299 297 295 292 288 287 288 287 288 292 296 296 294 294 292 286 281 281 280 275 270 267 266 265 264 262 260 258 252 243 239 240 242 242 239 237 235 224 208 196
262 253 254 265 255 82 45 12 17 61 308 305 324 317 307 313 319 317 312 310 304 296 291 291 292 293 293 294 295 295 296 297 299 302 304 306 306 306 305 304 304 303 300 298 296 294 294 293 291 290 288 285 285 285 285 287 291 292 291 291 292 289 282 278 277 275 272 268 265 262 261 260 259 256 249 242 242 247 247 242 235 231 225 213 199 187 179
261 248 251 285 292 71 15 344 316 308 314 314 312 304 299 307 314 308 303 302 296 290 288 288 290 291 290 289 290 290 290 291 294 296 298 299 298 298 297 297 296 295 292 291 289 288 286 286 286 285 284 282 281 281 283 287 290 290 289 289 288 283 277 275 274 273 270 266 262 260 260 258 254 245 238 239 245 245 237 228 222 210 192 182 177 172 170
278 272 280 303 301 293 307 315 303 300 302 302 301 297 295 298 301 298 294 291 289 286 284 284 286 285 284 285 286 287 288 289 290 291 293 293 294 293 292 291 290 288 286 285 285 283 281 283 284 283 281 279 277 279 283 285 286 285 285 283 279 275 272 270 269 269 267 263 260 259 257 251 241 233 234 237 235 227 217 209 197 182 171 168 169 170 171
285 278 272 280 287 291 298 300 296 294 294 293 296 295 292 292 293 293 292 290 289 287 285 284 282 279 280 281 281 282 284 285 287 288 289 290 290 290 290 289 288 287 286 285 283 282 282 283 284 283 280 275 275 279 282 282 281 280 280 278 275 271 268 267 266 264 262 260 258 255 247 234 224 226 232 228 218 208 196 182 172 166 163 162 164 168 173
284 278 270 282 290 295 297 296 293 291 287 286 288 291 293 295 293 292 292 292 290 287 285 283 281 280 279 280 280 280 281 282 284 285 285 287 288 288 289 290 289 288 286 285 284 283 284 286 286 284 280 277 279 283 282 280 280 280 278 276 271 268 267 266 264 260 256 253 248 237 226 218 217 223 223 210 192 178 168 162 159 157 156 158 162 166 167
279 280 284 290 290 290 292 292 290 288 288 290 290 288 289 292 292 290 289 288 287 286 284 282 282 282 281 280 280 280 280 281 283 283 283 285 287 288 289 289 288 287 286 284 285 286 287 288 288 285 283 283 285 283 281 282 284 283 279 274 269 266 264 260 256 250 244 237 231 225 220 218 213 200 182 167 157 153 153 153 152 151 151 152 152 149 144
280 278 285 293 295 293 292 291 290 291 293 295 296 294 291 289 288 286 285 283 282 282 282 282 281 280 279 279 279 279 279 279 280 281 284 286 288 289 290 289 288 286 284 284 286 287 288 290 289 287 287 288 285 283 285 289 289 284 279 273 267 261 255 248 243 237 228 222 220 214 199 177 157 144 141 141 141 142 144 145 143 143 143 141 138 137 136
283 291 303 308 305 296 292 293 295 297 298 298 298 297 294 290 287 286 285 284 280 277 276 276 276 276 277 278 278 279 279 279 280 282 284 287 288 289 289 289 287 285 285 285 285 286 288 288 287 287 288 287 285 288 293 294 292 286 280 273 263 250 240 234 230 224 212 196 179 162 148 140 136 134 133 134 135 135 137 137 136 137 137 135 133 132 127
291 297 301 301 296 290 291 294 296 298 300 300 299 295 292 290 289 289 288 286 283 279 275 272 270 271 275 277 277 278 279 279 280 282 283 285 287 287 287 286 285 284 284 284 284 286 287 286 286 287 286 284 287 296 303 301 297 288 272 255 233 212 200 192 182 170 158 147 139 135 134 135 135 132 130 130 130 130 131 131 130 129 127 123 118 114 107
294 294 296 297 294 292 294 296 297 298 298 298 296 293 291 291 292 293 291 288 284 281 277 273 270 270 273 275 277 278 279 280 280 281 281 282 282 283 283 282 281 282 282 282 283 284 283 285 286 282 279 283 292 307 333 339 181 142 149 153 145 135 131 131 132 132 131 131 131 132 134 136 135 133 132 132 131 129 127 125 121 116 110 105 100 95 89
294 295 298 298 295 295 296 296 295 294 294 294 294 294 295 296 297 297 294 288 281 278 276 274 273 273 273 274 275 276 278 279 279 279 280 280 279 279 278 276 277 279 279 280 281 282 282 282 278 271 272 280 284 76 88 98 114 118 120 122 122 122 123 124 124 125 126 129 132 134 135 136 135 134 134 132 129 125 122 118 113 108 103 100 96 88 77
295 295 297 296 293 292 294 295 293 294 296 297 296 296 297 297 295 295 294 287 281 277 274 272 273 275 275 276 277 278 278 278 278 278 278 277 276 275 274 274 276 276 276 278 279 278 276 272 264 260 259 227 156 131 114 112 117 118 121 124 125 125 126 125 124 125 128 131 133 134 135 134 133 131 129 126 122 120 120 119 118 117 112 104 94 80 66
301 301 302 301 297 296 297 297 297 298 299 299 297 296 296 294 294 296 295 290 283 279 275 273 276 279 279 279 279 278 278 277 278 278 275 274 275 274 273 273 274 273 272 273 273 269 262 254 250 245 212 164 147 139 132 128 123 120 121 123 123 122 122 122 123 127 132 134 135 134 133 131 128 125 122 119 117 117 119 120 120 121 115 101 84 64 45
305 307 310 307 301 300 300 298 298 299 301 300 298 296 295 293 293 295 294 291 288 285 283 282 283 282 281 281 281 282 281 280 280 278 276 275 276 274 272 272 272 270 268 266 262 256 245 236 234 220 180 159 153 148 142 135 127 119 115 114 115 118 121 120 121 127 132 133 134 133 131 129 127 124 122 121 121 125 127 128 128 127 118 94 64 38 24
309 310 308 304 300 300 300 299 300 302 304 304 303 301 299 297 296 295 294 294 294 293 292 292 290 284 281 280 280 280 280 280 279 278 278 278 280 281 282 281 277 271 266 260 251 240 228 221 217 199 173 163 159 152 143 137 133 127 121 115 112 118 124 126 128 132 135 136 138 139 137 134 131 129 127 128 132 135 137 141 144 147 151 138 23 9 2
309 308 306 304 305 306 305 303 304 307 310 310 311 310 308 305 303 300 299 298 299 298 296 295 292 285 279 278 278 279 280 282 283 284 284 284 285 287 289 287 279 267 259 252 240 224 212 210 205 187 170 165 163 155 146 144 142 138 135 131 124 131 146 146 142 141 141 142 143 142 137 133 132 132 131 133 136 137 144 152 155 160 172 183 198 335 309
310 311 311 310 311 311 309 307 310 315 318 318 318 320 321 319 317 317 316 314 311 308 306 304 302 299 296 295 296 296 294 292 290 287 286 286 287 289 291 290 274 247 239 241 235 208 194 193 188 174 167 167 166 160 153 151 148 145 147 149 146 153 163 160 153 148 145 142 142 142 139 137 140 141 138 139 143 146 154 161 163 170 177 180 198 229 258
315 318 319 319 317 316 315 317 319 321 324 326 330 336 340 343 345 346 346 342 335 332 330 328 327 327 323 318 311 304 296 289 282 276 275 278 277 275 276 245 207 198 200 201 187 172 170 171 166 163 165 167 165 161 157 151 145 145 154 161 161 168 172 168 162 159 157 152 148 149 151 152 153 154 156 160 160 162 166 169 172 180 183 193 238 277 297
318 321 323 325 324 320 320 323 326 329 334 343 353 360 4 7 10 10 10 8 6 4 2 359 356 353 348 337 320 300 266 184 120 115 106 99 107 118 121 130 143 146 143 144 146 148 152 155 155 157 161 162 161 162 159 151 147 161 170 161 162 171 172 167 162 163 167 167 164 165 166 167 169 174 174 169 165 164 169 176 184 198 216 246 279 299 307
320 318 318 322 324 321 322 328 336 347 358 4 12 20 22 23 25 28 28 26 21 16 17 24 33 41 49 56 62 76 96 98 92 93 93 91 93 97 104 115 127 128 126 129 133 135 139 144 148 151 154 155 157 158 155 153 169 189 155 148 155 164 168 167 166 169 175 176 177 179 180 179 185 190 180 169 167 169 183 205 223 233 250 275 296 309 310
322 318 317 322 329 330 333 340 354 16 24 27 37 46 50 52 54 54 55 53 50 50 55 67 79 82 80 77 73 72 74 80 87 91 91 90 90 92 94 100 108 112 113 116 118 122 128 135 140 144 147 149 149 152 159 167 165 144 136 143 153 160 164 167 170 177 184 186 186 187 189 191 195 192 177 172 181 201 231 254 265 269 274 287 305 320 326
329 329 330 337 346 354 13 37 55 63 65 66 67 65 64 63 62 62 62 63 63 65 67 70 74 77 76 73 71 68 67 69 76 83 86 85 84 83 85 89 93 97 100 102 103 110 120 126 130 138 146 149 150 152 151 142 136 135 138 143 150 158 165 169 176 184 189 189 188 190 195 199 197 190 186 195 215 240 263 281 290 293 302 318 330 335 337
340 347 355 11 32 61 78 81 81 80 80 81 79 75 71 68 67 66 66 64 65 66 68 69 70 73 73 73 73 71 69 66 66 69 73 76 77 79 83 87 88 88 88 88 90 97 109 116 124 135 139 134 130 128 124 123 133 144 146 145 152 163 169 173 179 184 184 185 190 197 200 198 196 200 215 231 246 262 281 298 307 315 333 344 342 339 339
358 16 40 73 92 100 100 94 87 84 82 82 82 80 77 74 71 68 66 64 63 64 67 70 72 74 76 77 77 76 74 71 67 65 65 68 72 78 81 81 79 78 78 79 85 94 102 107 116 124 124 120 117 116 116 123 137 138 132 136 149 161 166 169 172 175 178 185 195 200 197 197 205 219 236 252 270 286 301 319 329 336 346 350 347 347 346
24 56 93 107 110 109 104 99 96 92 86 79 78 79 77 75 72 69 66 64 62 61 62 67 71 74 77 78 78 78 77 76 74 70 67 66 69 73 76 75 75 75 74 75 80 89 98 104 109 114 114 114 116 119 122 127 126 119 123 136 148 157 163 164 166 172 181 190 195 193 195 207 221 236 254 273 292 312 328 337 340 344 350 354 354 354 352
76 104 117 120 117 111 104 99 95 90 83 74 71 74 77 76 73 69 65 62 60 59 59 62 68 73 75 75 74 76 79 81 81 80 77 74 73 73 74 74 75 76 76 75 76 79 85 93 98 99 98 99 104 111 115 115 112 112 120 133 147 157 162 162 164 172 182 190 193 196 207 225 240 256 276 294 313 328 335 339 342 347 353 357 356 354 353
114 125 129 127 121 113 106 97 89 85 82 77 73 72 74 76 74 71 68 66 65 64 61 60 64 70 72 70 69 71 75 78 80 82 83 82 80 78 78 78 78 78 79 80 80 79 79 82 86 87 87 87 89 91 93 97 104 110 113 118 133 151 155 154 157 165 177 192 209 222 237 253 265 274 286 309 328 333 337 344 351 354 357 358 354 350 351
134 137 137 134 127 117 106 95 88 85 82 80 80 79 79 79 79 76 74 72 71 69 67 64 64 67 69 69 69 68 68 68 69 72 76 79 81 82 82 82 85 88 91 93 93 92 89 87 87 89 92 92 90 87 87 93 107 120 124 124 130 139 142 144 149 158 177 206 228 241 249 254 261 272 296 325 338 340 344 352 355 353 357 1 357 352 349
145 144 143 141 133 119 106 96 89 84 81 81 82 81 80 79 78 77 75 72 71 70 68 66 65 65 65 65 66 65 64 62 63 64 65 68 72 76 79 80 80 84 91 97 102 104 104 104 103 101 101 100 99 98 99 104 111 119 124 126 127 129 137 149 164 178 189 198 206 212 218 225 229 239 273 302 321 323 330 335 333 332 336 339 338 338 341
159 154 154 153 146 133 120 108 94 86 83 81 78 77 76 75 73 72 71 68 67 69 70 68 66 66 65 63 62 62 62 62 62 62 62 62 62 64 67 70 71 71 74 79 85 89 93 98 100 101 102 102 103 104 107 110 112 117 124 129 132 134 143 157 169 173 174 176 180 185 195 212 226 233 234 239 251 277 299 307 310 315 320 322 324 330 336
177 170 166 166 164 153 134 120 110 100 90 81 74 72 71 67 63 60 59 58 58 61 63 64 64 66 65 63 59 57 58 61 62 61 60 60 57 53 52 54 56 57 58 61 65 68 69 70 72 78 85 91 97 105 113 116 118 121 126 133 139 145 152 160 165 168 173 180 186 195 207 221 227 229 235 249 270 292 307 313 322 336 350 3 14 19 11
189 181 174 175 180 170 143 125 118 108 93 79 70 64 60 57 54 51 49 48 49 51 54 56 57 59 61 62 59 54 53 56 60 62 61 59 56 52 48 45 44 44 44 45 49 53 55 56 56 56 57 61 71 90 107 116 121 124 126 127 130 132 136 144 152 158 164 166 169 179 190 197 197 203 223 269 346 7 8 13 29 46 56 57 53 46 34
193 186 181 183 186 174 151 137 128 119 107 93 78 65 57 55 54 52 51 50 50 50 52 53 53 53 56 61 64 63 57 53 55 58 60 60 57 53 50 48 45 41 38 35 34 35 36 39 42 45 46 48 52 59 70 85 104 115 118 122 126 128 132 136 138 139 135 128 120 120 123 121 117 110 89 69 58 48 41 46 61 68 65 57 48 41 34
190 190 188 185 180 170 160 154 151 150 145 132 107 80 65 60 58 58 57 54 51 49 49 51 52 52 53 56 61 66 67 65 61 59 58 57 55 54 51 49 47 45 43 39 33 29 26 23 21 23 27 32 38 46 54 64 78 91 102 112 117 121 125 125 120 115 114 112 106 102 96 90 86 82 74 67 63 55 44 45 60 67 61 52 45 39 34
169 182 183 177 172 171 170 169 173 176 165 147 134 110 78 66 61 55 50 50 49 49 47 46 47 49 51 52 53 56 58 60 60 60 58 57 55 53 51 50 49 49 50 47 41 34 30 24 16 12 14 18 25 33 39 46 53 59 65 70 72 77 89 100 101 93 84 83 88 95 97 96 95 91 79 71 70 61 42 41 61 70 64 54 46 39 35
151 160 170 175 177 178 178 179 182 182 170 161 164 161 109 89 81 58 46 50 53 53 50 46 45 46 47 48 47 48 47 47 48 50 54 56 55 52 51 51 49 49 52 53 49 43 39 34 28 22 16 14 19 27 36 45 52 54 53 57 62 61 61 66 74 77 77 77 76 77 87 98 103 101 88 75 66 47 34 56 77 77 67 57 50 43 37
177 173 180 187 190 189 190 192 193 189 183 182 187 186 159 140 148 108 64 68 65 57 52 50 50 50 49 48 46 46 47 47 46 48 52 54 53 51 51 51 49 47 48 49 47 44 41 38 38 38 33 26 26 32 36 40 46 48 53 63 75 76 67 64 67 74 85 91 83 69 75 94 106 104 92 74 31 9 41 83 92 87 73 62 56 49 44
204 199 196 197 196 196 199 204 205 203 200 198 199 202 198 182 178 203 20 58 78 82 70 59 57 61 63 60 54 53 54 54 55 57 60 60 58 56 55 53 49 46 46 45 44 43 40 37 36 36 36 37 40 43 40 41 46 50 57 67 76 79 83 89 86 73 69 79 84 75 77 91 106 105 88 50 29 55 86 95 92 85 77 68 61 55 51